[[{"header":{"parameterUnit":"m.s-1","parameterCategory":2,"la1":30.2991,"la2":30.254,"lo1":-89.0895,"lo2":-89.0444,"dy":0.0017,"dx":0.0017,"nx":28,"ny":28,"refTime":"2025-09-04T03:00:00:Z","depth":"0","parameterNumber":2,"parameterNumberName":"U-component_of_CURRENTS"},"data":[0,0,0,0,0,0,0,0,0,0,0,0,0,0,0,0,0,0,0,0,0,0,0,0,0,0,0,0,0,0,0,0,0,0,0,0,0,0,0,0,0,0,0,0,0,0,0,0,0,0,0,0,0,0,0,0,0,0,0.2521,0.2521,0,0.2565,0.2565,0.2565,0.2556,0.2556,0.2555,0.2555,0.2532,0.2532,0.2532,0,0,0,0,0,0,0,0,0,0,0,0,0,0.2419,0.2421,0.252,0.2521,0.2522,0.2565,0.2565,0.2565,0.2556,0.2556,0.2555,0.2554,0.2532,0.2532,0.2532,0,0,0,0,0,0,0,0,0,0,0,0,0,0.246,0.2421,0.252,0.2525,0.2526,0.2565,0.2565,0.2565,0.2556,0.2556,0.2555,0.2554,0.2533,0.2532,0.2532,0.2547,0,0,0.2532,0.2532,0,0,0,0,0,0,0,0,0.2458,0.2463,0.2524,0.2525,0.2526,0.2557,0.2521,0.2557,0.2557,0.2542,0.2555,0.2554,0.2537,0.2537,0.2543,0.2546,0.2545,0.2532,0.2532,0.2532,0.2532,0,0,0,0,0,0,0,0.2455,0.2462,0.2535,0.2525,0.2526,0.2522,0.2527,0.2528,0.254,0.2543,0.2543,0.2553,0.2537,0.2543,0.2542,0.2545,0.2532,0.2532,0.2532,0.2531,0.256,0.2561,0,0,0,0,0,0,0.2458,0.2459,0.2533,0.2536,0.2493,0.2525,0.253,0.2545,0.2541,0.2541,0.2554,0.2553,0.2544,0.2543,0.2541,0.2565,0.2532,0.2531,0.2531,0.2559,0.256,0.2561,0,0,0,0,0,0,0.2455,0.2464,0.2532,0.2501,0.2509,0.2528,0.2545,0.2547,0.2555,0.2551,0.2549,0.2561,0.2543,0.2542,0.2548,0.2563,0.2531,0.2531,0.2558,0.2559,0.2561,0.2608,0,0,0,0,0,0,0.2452,0.2463,0.2472,0.2501,0.2511,0.2558,0.2546,0.2548,0.2564,0.2563,0.2557,0.2554,0.2543,0.2548,0.2548,0.2563,0.2531,0.2557,0.2559,0.256,0.2605,0.261,0.2615,0,0,0,0,0,0.2449,0.2467,0.2473,0.2482,0.2525,0.2559,0.2564,0.2572,0.2566,0.2575,0.257,0.2554,0.2558,0.2549,0.2548,0.2563,0.2556,0.2558,0.256,0.2603,0.2609,0.2615,0,0,0,0,0,0,0.2427,0.2469,0.2476,0.2505,0.2532,0.2559,0.257,0.2577,0.2583,0.2578,0.2566,0.2564,0.2575,0.2565,0.2555,0.2576,0.2554,0.2556,0.2587,0.2593,0.2597,0.2675,0.2531,0,0,0,0,0,0.2429,0.2453,0.249,0.2513,0.2527,0.255,0.2564,0.2572,0.2584,0.2586,0.2583,0.2579,0.2584,0.2584,0.2583,0.2596,0.2676,0.2605,0.261,0.2614,0.2677,0.283,0.2857,0.2567,0.2567,0.2567,0,0,0.2428,0.2454,0.2468,0.251,0.2529,0.2554,0.2555,0.2582,0.2601,0.2583,0.2599,0.2596,0.2591,0.2606,0.2609,0.2598,0.2728,0.2617,0.262,0.2683,0.2836,0.2865,0.2891,0.2568,0.2568,0.2568,0,0,0.2438,0.2461,0.2483,0.2505,0.2541,0.2559,0.2569,0.26,0.2611,0.2628,0.2624,0.2651,0.2631,0.266,0.2663,0.2701,0.2749,0.2672,0.2763,0.2909,0.2936,0.2961,0.3063,0.3097,0.2675,0.2675,0.2675,0,0.2435,0.2473,0.2494,0.2517,0.255,0.2563,0.26,0.2608,0.2635,0.2679,0.2633,0.2703,0.2671,0.2755,0.2752,0.2717,0.2802,0.2736,0.2922,0.2948,0.2973,0.3073,0.311,0.2678,0.2677,0.2677,0.2677,0,0.2462,0.249,0.2505,0.2544,0.2577,0.2611,0.2638,0.2666,0.2676,0.2711,0.2792,0.2783,0.2851,0.2815,0.2785,0.2939,0.294,0.2912,0.2917,0.3007,0.3103,0.3141,0.2681,0.268,0.268,0.2679,0,0,0.2477,0.2519,0.2524,0.2572,0.2603,0.2654,0.268,0.2761,0.2842,0.2844,0.2975,0.2959,0.3006,0.3019,0.3005,0.3105,0.3298,0.3087,0.3093,0.3209,0.3622,0.3516,0.3547,0.3317,0.3325,0.3331,0.3607,0,0.2502,0.2569,0.2574,0.2652,0.2711,0.2733,0.2781,0.2851,0.2905,0.3022,0.3061,0.3157,0.3066,0.3124,0.3214,0.3289,0.3407,0.3226,0.3504,0.3513,0.3426,0.3591,0.3443,0.367,0.3644,0.365,0.3655,0,0.2546,0.2594,0.2679,0.2777,0.2804,0.2843,0.2994,0.3036,0.317,0.3222,0.3338,0.338,0.3522,0.3432,0.3662,0.3558,0.362,0.3661,0.3672,0.3604,0.3481,0.3583,0.374,0.3593,0.3713,0.3709,0.3704,0,0.2628,0.2683,0.2773,0.2799,0.2889,0.2947,0.3,0.3121,0.3191,0.339,0.3478,0.3651,0.3739,0.3878,0.3905,0.3836,0.4159,0.4068,0.4043,0.4033,0.3983,0.3956,0.4058,0.4295,0.4295,0.4294,0.4293,0,0.2699,0.2774,0.2822,0.2882,0.2988,0.3043,0.3176,0.325,0.339,0.3488,0.3607,0.3713,0.3864,0.4009,0.405,0.4165,0.4286,0.4137,0.4136,0.3982,0.3953,0.3877,0.38,0.4304,0.4302,0.43,0.4298,0,0.2795,0.2823,0.2924,0.301,0.3034,0.3124,0.3211,0.3296,0.3444,0.3583,0.3652,0.3831,0.4006,0.4129,0.435,0.4328,0.4338,0.4464,0.4242,0.4209,0.3997,0.3926,0.398,0.387,0.4525,0.4524,0.4524,0,0.2857,0.2922,0.2996,0.301,0.3042,0.3143,0.3179,0.3309,0.3376,0.3604,0.366,0.3896,0.3993,0.4287,0.4356,0.4505,0.4331,0.4423,0.4255,0.4037,0.3962,0.3784,0.3674,0.4201,0.4198,0.4196,0.4194,0,0.2937,0.2955,0.2992,0.3031,0.3064,0.3108,0.3174,0.323,0.3369,0.3491,0.3628,0.3752,0.4017,0.4101,0.4299,0.4346,0.4189,0.4372,0.4253,0.3835,0.3558,0.3428,0.3927,0.4172,0.4175,0.4176,0.4177,0.4178,0.2936,0.2953,0.2962,0.2996,0.3017,0.3024,0.3023,0.3094,0.3182,0.3307,0.3496,0.3622,0.3835,0.4083,0.4113,0.4049,0.4031,0.3933,0.3908,0.3778,0.3547,0.3966,0.4119,0.4121,0.4122,0.4124,0.4125,0,0.2878,0.2881,0.2907,0.2899,0.2875,0.293,0.2954,0.2924,0.2944,0.3133,0.3255,0.3432,0.3554,0.3684,0.3741,0.3619,0.3474,0.3513,0.3255,0.32,0.3698,0.355,0.3456,0.3456,0.3457,0.3457,0.3457,0.3457,0.2824,0.2799,0.2812,0.2737,0.2727,0.2649,0.263,0.2618,0.27,0.2776,0.2868,0.3056,0.3267,0.3416,0.3324,0.3252,0.2986,0.2874,0.2856,0.3202,0.3238,0.3272,0.3115,0.2931,0.2931,0.2229,0.2223,0.2219]},{"header":{"parameterUnit":"m.s-1","parameterCategory":2,"la1":30.2991,"la2":30.254,"lo1":-89.0895,"lo2":-89.0444,"dy":0.0017,"dx":0.0017,"nx":28,"ny":28,"refTime":"2025-09-04T03:00:00:Z","depth":"0","parameterNumber":3,"parameterNumberName":"V-component_of_CURRENTS"},"data":[0,0,0,0,0,0,0,0,0,0,0,0,0,0,0,0,0,0,0,0,0,0,0,0,0,0,0,0,0,0,0,0,0,0,0,0,0,0,0,0,0,0,0,0,0,0,0,0,0,0,0,0,0,0,0,0,0,0,-0.0133,-0.0134,0,-0.0191,-0.0192,-0.0193,-0.0231,-0.0231,-0.0231,-0.0232,-0.0319,-0.0321,-0.0323,0,0,0,0,0,0,0,0,0,0,0,0,0,-0.0098,-0.0098,-0.0133,-0.0134,-0.0134,-0.0191,-0.0192,-0.0193,-0.0231,-0.0231,-0.0231,-0.0232,-0.0318,-0.032,-0.0323,0,0,0,0,0,0,0,0,0,0,0,0,0,-0.0131,-0.0098,-0.0133,-0.0159,-0.0162,-0.0191,-0.0192,-0.0193,-0.0231,-0.0231,-0.0231,-0.0232,-0.0317,-0.032,-0.0323,-0.0338,0,0,-0.0333,-0.0335,0,0,0,0,0,0,0,0,-0.0129,-0.0133,-0.0155,-0.0158,-0.0161,-0.0203,-0.0212,-0.0243,-0.0231,-0.0206,-0.0232,-0.0232,-0.0282,-0.0288,-0.0299,-0.0343,-0.0346,-0.0334,-0.0336,-0.0337,-0.0338,0,0,0,0,0,0,0,-0.0127,-0.0131,-0.0157,-0.0156,-0.0159,-0.0183,-0.0188,-0.0218,-0.0243,-0.0208,-0.0211,-0.0216,-0.0284,-0.0296,-0.0302,-0.0348,-0.0334,-0.0336,-0.0338,-0.034,-0.0423,-0.0424,0,0,0,0,0,0,-0.0115,-0.0128,-0.0155,-0.0159,-0.0144,-0.0183,-0.0189,-0.019,-0.0242,-0.025,-0.0215,-0.0217,-0.029,-0.0298,-0.0305,-0.0314,-0.0337,-0.034,-0.0342,-0.0423,-0.0424,-0.0424,0,0,0,0,0,0,-0.0114,-0.0117,-0.0153,-0.0144,-0.015,-0.0183,-0.0185,-0.0191,-0.0203,-0.0247,-0.0256,-0.022,-0.0291,-0.03,-0.0335,-0.0319,-0.0341,-0.0344,-0.0423,-0.0423,-0.0424,-0.0341,0,0,0,0,0,0,-0.0113,-0.0116,-0.0112,-0.0143,-0.015,-0.0163,-0.0185,-0.0192,-0.0205,-0.0208,-0.0254,-0.0263,-0.0292,-0.0329,-0.0338,-0.0323,-0.0347,-0.0423,-0.0423,-0.0424,-0.0343,-0.0338,-0.0334,0,0,0,0,0,-0.0111,-0.01,-0.0111,-0.0114,-0.0144,-0.0163,-0.0168,-0.0194,-0.0205,-0.0206,-0.0243,-0.0261,-0.0339,-0.0332,-0.0342,-0.0328,-0.0422,-0.0423,-0.0424,-0.0345,-0.0339,-0.0334,0,0,0,0,0,0,-0.0074,-0.0104,-0.0117,-0.0113,-0.0134,-0.0169,-0.017,-0.0189,-0.0219,-0.0222,-0.0266,-0.0277,-0.0304,-0.0333,-0.0324,-0.0357,-0.0383,-0.0386,-0.032,-0.0315,-0.0311,-0.0218,-0.035,0,0,0,0,0,-0.0065,-0.0069,-0.01,-0.0095,-0.0105,-0.0138,-0.0148,-0.0165,-0.0195,-0.0208,-0.0243,-0.0282,-0.0314,-0.0327,-0.0366,-0.0378,-0.0347,-0.0378,-0.0374,-0.0369,-0.0303,-0.0239,-0.022,-0.0426,-0.0426,-0.0426,0,0,-0.0046,-0.0064,-0.0065,-0.0088,-0.0107,-0.011,-0.0144,-0.0154,-0.015,-0.0213,-0.0223,-0.0272,-0.0319,-0.0338,-0.0351,-0.0356,-0.0308,-0.037,-0.0366,-0.03,-0.0237,-0.0216,-0.0197,-0.0426,-0.0426,-0.0426,0,0,-0.0012,-0.0029,-0.0024,-0.0042,-0.0067,-0.0085,-0.0086,-0.0121,-0.013,-0.0155,-0.0196,-0.0214,-0.0286,-0.0289,-0.0306,-0.0296,-0.0293,-0.0338,-0.0225,-0.0165,-0.0146,-0.0128,-0.0103,-0.0084,-0.0325,-0.0325,-0.0325,0,0.0013,0.0022,-0.0023,-0.0025,-0.0012,-0.007,-0.0042,-0.0072,-0.0113,-0.0077,-0.015,-0.017,-0.0245,-0.0195,-0.0219,-0.0276,-0.0254,-0.0241,-0.0152,-0.0133,-0.0116,-0.0095,-0.0074,-0.0321,-0.0321,-0.0322,-0.0322,0,0.0046,0.0057,0.0061,0.0047,0.0046,0.0061,0.0025,0.0029,0.0003,-0.0002,0.0029,-0.0057,-0.0033,-0.0102,-0.0173,-0.0087,-0.0118,-0.0158,-0.0148,-0.0089,-0.0074,-0.0053,-0.0315,-0.0317,-0.0318,-0.0319,0,0,0.012,0.0094,0.0101,0.0148,0.0101,0.0136,0.0133,0.0177,0.0264,0.018,0.0306,0.0184,0.0184,0.0167,0.0093,0.0106,0.0173,0.0024,0.0025,0.008,0.0295,0.0227,0.0242,0.0153,0.0157,0.0161,0.0244,0,0.0179,0.0235,0.0186,0.0273,0.0325,0.0288,0.0326,0.0353,0.036,0.0451,0.0398,0.0453,0.0273,0.0306,0.0291,0.022,0.0238,0.0154,0.0205,0.0207,0.0167,0.0268,0.02,0.0266,0.0264,0.0267,0.027,0,0.0254,0.0293,0.039,0.048,0.0501,0.0539,0.0682,0.0701,0.077,0.0785,0.0829,0.0789,0.0804,0.0639,0.0602,0.0559,0.0452,0.0369,0.037,0.0316,0.0181,0.0211,0.0303,0.0089,0.0301,0.0298,0.0296,0,0.0428,0.0462,0.0577,0.0594,0.065,0.0729,0.0769,0.0841,0.0923,0.1037,0.1125,0.1126,0.1157,0.1049,0.0817,0.0742,0.0773,0.0656,0.0505,0.0497,0.0461,0.0442,0.0393,0.0676,0.0675,0.0675,0.0675,0,0.0562,0.0667,0.0684,0.0764,0.0934,0.092,0.1117,0.1152,0.1262,0.1399,0.1337,0.1444,0.1261,0.1215,0.0985,0.0822,0.0915,0.0587,0.0547,0.0475,0.0458,0.0284,0.017,0.0678,0.0678,0.0677,0.0676,0,0.0767,0.0761,0.0909,0.0991,0.1027,0.1168,0.1289,0.1421,0.1503,0.1687,0.1736,0.1737,0.1668,0.1456,0.1292,0.1058,0.0772,0.0801,0.0705,0.0653,0.0289,0.0182,0.0181,0.0097,0.069,0.069,0.0689,0,0.0883,0.0979,0.1087,0.1151,0.1195,0.1359,0.1455,0.1545,0.1665,0.1843,0.1944,0.1963,0.1949,0.17,0.1319,0.1006,0.0781,0.0736,0.0575,0.0323,0.0175,0.0105,0.003,0.0536,0.0534,0.0532,0.0531,0,0.1095,0.1126,0.1213,0.1336,0.1447,0.1588,0.1728,0.186,0.1971,0.2115,0.2259,0.228,0.2036,0.1703,0.1284,0.1021,0.0585,0.0695,0.0489,0.0128,0.0005,-0.0115,0.0392,0.0518,0.0519,0.052,0.0521,0.0522,0.1221,0.1306,0.1371,0.1501,0.1615,0.1769,0.1904,0.2039,0.2235,0.2425,0.2445,0.2474,0.2005,0.1418,0.1091,0.043,0.0474,0.0195,0.0109,0.0081,-0.0057,0.0408,0.0444,0.0445,0.0445,0.0446,0.0446,0,0.132,0.1384,0.1509,0.1638,0.1767,0.1816,0.2033,0.2161,0.2362,0.2505,0.261,0.233,0.176,0.1177,0.0312,-0.0094,-0.0241,-0.0308,-0.0434,-0.0466,-0.0005,-0.0077,-0.0218,-0.0218,-0.0217,-0.0217,-0.0217,-0.0217,0.1362,0.1463,0.152,0.1718,0.1818,0.2003,0.2126,0.2309,0.2441,0.2553,0.251,0.2469,0.1925,0.053,-0.0419,-0.0617,-0.0879,-0.0931,-0.1011,-0.0759,-0.072,-0.0682,-0.0777,-0.1062,-0.1063,-0.146,-0.1464,-0.1468]}],[{"header":{"parameterUnit":"m.s-1","parameterCategory":2,"la1":30.2991,"la2":30.254,"lo1":-89.0895,"lo2":-89.0444,"dy":0.0017,"dx":0.0017,"nx":28,"ny":28,"refTime":"2025-09-04T03:00:00:Z","depth":"2","parameterNumber":2,"parameterNumberName":"U-component_of_CURRENTS"},"data":[0,0,0,0,0,0,0,0,0,0,0,0,0,0,0,0,0,0,0,0,0,0,0,0,0,0,0,0,0,0,0,0,0,0,0,0,0,0,0,0,0,0,0,0,0,0,0,0,0,0,0,0,0,0,0,0,0,0,0.2264,0.2264,0,0.2305,0.2305,0.2306,0.2409,0.2412,0.2414,0.2416,0.251,0.251,0.2511,0,0,0,0,0,0,0,0,0,0,0,0,0,0.2202,0.2203,0.2264,0.2264,0.2265,0.2304,0.2305,0.2306,0.2409,0.2412,0.2414,0.2416,0.2509,0.251,0.2511,0,0,0,0,0,0,0,0,0,0,0,0,0,0.2236,0.2203,0.2264,0.232,0.2325,0.2304,0.2305,0.2306,0.2409,0.2412,0.2415,0.2418,0.2509,0.251,0.2511,0.2454,0,0,0.2513,0.2514,0,0,0,0,0,0,0,0,0.2234,0.2238,0.2311,0.2316,0.2322,0.2354,0.2318,0.2358,0.2408,0.2378,0.2416,0.2419,0.2459,0.2464,0.2466,0.2458,0.2462,0.2514,0.2514,0.2514,0.2515,0,0,0,0,0,0,0,0.2231,0.2236,0.2281,0.2311,0.2318,0.2318,0.2327,0.2325,0.2403,0.2381,0.2388,0.239,0.2463,0.2465,0.2469,0.2464,0.2514,0.2514,0.2515,0.2515,0.2583,0.2585,0,0,0,0,0,0,0.2224,0.2234,0.228,0.2283,0.2283,0.2316,0.2327,0.2342,0.2402,0.2413,0.2387,0.2394,0.2462,0.2468,0.2473,0.2556,0.2514,0.2515,0.2516,0.2582,0.2584,0.2585,0,0,0,0,0,0,0.2223,0.2228,0.2278,0.2257,0.2264,0.2315,0.233,0.2341,0.2381,0.2406,0.2419,0.2421,0.2465,0.2472,0.2538,0.2555,0.2516,0.2516,0.2581,0.2583,0.2584,0.2628,0,0,0,0,0,0,0.2221,0.2228,0.2244,0.2257,0.2265,0.2308,0.2327,0.2339,0.2374,0.2385,0.2437,0.2448,0.2468,0.2537,0.2539,0.2556,0.2517,0.2579,0.2581,0.2584,0.2625,0.2631,0.2636,0,0,0,0,0,0.2219,0.2242,0.2245,0.2251,0.2284,0.2309,0.2314,0.2359,0.2372,0.2404,0.2454,0.2448,0.2554,0.2539,0.2541,0.2558,0.2578,0.2581,0.2584,0.2622,0.263,0.2636,0,0,0,0,0,0,0.2223,0.2254,0.2259,0.229,0.231,0.2327,0.2353,0.2366,0.2422,0.2441,0.2467,0.2482,0.2544,0.2543,0.2526,0.2586,0.2561,0.2565,0.259,0.2597,0.2603,0.2651,0.2518,0,0,0,0,0,0.2224,0.2252,0.2273,0.2293,0.2309,0.2326,0.2341,0.2368,0.2407,0.2436,0.247,0.2508,0.2544,0.257,0.2598,0.2623,0.2655,0.2635,0.2641,0.2646,0.2687,0.2764,0.2781,0.2595,0.2595,0.2595,0,0,0.2247,0.2245,0.2275,0.2295,0.2312,0.2354,0.2347,0.2381,0.2424,0.2432,0.2513,0.2529,0.2557,0.2608,0.2633,0.2618,0.2708,0.265,0.2654,0.2693,0.2769,0.2788,0.2804,0.2597,0.2596,0.2596,0,0,0.228,0.2288,0.233,0.2345,0.2364,0.2378,0.2394,0.2427,0.2462,0.2514,0.2541,0.2592,0.2623,0.2669,0.2688,0.2738,0.2737,0.2719,0.2787,0.286,0.2877,0.2892,0.2924,0.2941,0.2721,0.2721,0.2721,0,0.2293,0.2341,0.2345,0.2371,0.2397,0.2398,0.2453,0.2476,0.2528,0.2571,0.2559,0.2656,0.2664,0.2755,0.2773,0.2755,0.2781,0.2755,0.287,0.2886,0.2901,0.293,0.2949,0.2723,0.2723,0.2723,0.2722,0,0.2361,0.2399,0.2418,0.2462,0.2492,0.2528,0.256,0.2602,0.2622,0.2654,0.2743,0.2762,0.2829,0.2817,0.2809,0.2909,0.2887,0.2868,0.2855,0.2923,0.2948,0.2967,0.2727,0.2726,0.2725,0.2724,0,0,0.2354,0.2459,0.2451,0.2504,0.2541,0.2573,0.2644,0.2721,0.2786,0.2822,0.2924,0.2958,0.2964,0.2988,0.2974,0.3029,0.3121,0.2992,0.2994,0.3028,0.3262,0.3108,0.3114,0.3121,0.3125,0.3129,0.3225,0,0.2397,0.2494,0.2521,0.2615,0.2686,0.2707,0.277,0.2834,0.2884,0.2977,0.3013,0.3091,0.3026,0.3055,0.3102,0.313,0.318,0.3096,0.3189,0.3192,0.3052,0.3135,0.2908,0.2965,0.3244,0.3247,0.3249,0,0.2433,0.2494,0.2624,0.2722,0.2749,0.2802,0.2909,0.2965,0.308,0.3123,0.321,0.3232,0.3325,0.325,0.3353,0.33,0.3294,0.3303,0.3306,0.3174,0.3076,0.2949,0.2989,0.3281,0.3279,0.3276,0.3274,0,0.2448,0.2546,0.2663,0.2696,0.2818,0.2873,0.2922,0.3025,0.3094,0.3234,0.3294,0.3401,0.345,0.3496,0.3451,0.3432,0.3545,0.352,0.3384,0.3371,0.3207,0.3172,0.3617,0.3617,0.3617,0.3616,0.3616,0,0.2481,0.2565,0.2681,0.275,0.2829,0.2909,0.3015,0.307,0.321,0.3298,0.3364,0.3426,0.3515,0.3553,0.353,0.3491,0.3601,0.3432,0.3406,0.3207,0.3172,0.3471,0.3453,0.362,0.3619,0.3618,0.3618,0,0.2509,0.2601,0.2718,0.2839,0.2858,0.2917,0.3031,0.3084,0.3229,0.3353,0.3403,0.3503,0.3543,0.3569,0.3642,0.3565,0.3563,0.3511,0.3241,0.3181,0.3334,0.3317,0.3444,0.344,0.3436,0.3433,0.3431,0,0.2575,0.264,0.2742,0.2753,0.2807,0.2897,0.2911,0.3065,0.3136,0.3356,0.3386,0.3501,0.3475,0.3495,0.3456,0.3423,0.3479,0.3162,0.3096,0.3365,0.3328,0.3316,0.3304,0.2891,0.2884,0.2878,0.2874,0,0.2625,0.2643,0.2692,0.2709,0.2725,0.2788,0.2859,0.2916,0.3096,0.3175,0.3245,0.3265,0.332,0.3172,0.3143,0.3087,0.3158,0.3048,0.3447,0.2943,0.2844,0.2806,0.2813,0.2825,0.283,0.2834,0.2836,0.2838,0.2594,0.2591,0.2593,0.26,0.2631,0.2652,0.267,0.2714,0.2775,0.2853,0.2983,0.2919,0.2975,0.2802,0.2708,0.2676,0.2887,0.2762,0.278,0.2804,0.2697,0.2594,0.2508,0.2511,0.2513,0.2515,0.2517,0,0.2475,0.2465,0.2465,0.2467,0.2457,0.2551,0.2595,0.2534,0.2489,0.2562,0.2572,0.2355,0.2269,0.2345,0.2238,0.2222,0.2218,0.2124,0.212,0.217,0.2214,0.2077,0.1724,0.1721,0.1719,0.1716,0,0,0.2391,0.2326,0.232,0.2271,0.2316,0.232,0.2337,0.2212,0.2213,0.2018,0.2009,0.2142,0.2269,0.1963,0.1934,0.1821,0.1977,0.1748,0.2392,0.2438,0.2479,0.2595,0.2441,0,0,0,0,0]},{"header":{"parameterUnit":"m.s-1","parameterCategory":2,"la1":30.2991,"la2":30.254,"lo1":-89.0895,"lo2":-89.0444,"dy":0.0017,"dx":0.0017,"nx":28,"ny":28,"refTime":"2025-09-04T03:00:00:Z","depth":"2","parameterNumber":3,"parameterNumberName":"V-component_of_CURRENTS"},"data":[0,0,0,0,0,0,0,0,0,0,0,0,0,0,0,0,0,0,0,0,0,0,0,0,0,0,0,0,0,0,0,0,0,0,0,0,0,0,0,0,0,0,0,0,0,0,0,0,0,0,0,0,0,0,0,0,0,0,-0.0138,-0.0138,0,-0.0175,-0.0176,-0.0176,-0.0263,-0.0265,-0.0266,-0.0268,-0.0415,-0.0417,-0.042,0,0,0,0,0,0,0,0,0,0,0,0,0,-0.0132,-0.0132,-0.0138,-0.0138,-0.0138,-0.0175,-0.0176,-0.0177,-0.0263,-0.0265,-0.0267,-0.0269,-0.0414,-0.0417,-0.042,0,0,0,0,0,0,0,0,0,0,0,0,0,-0.015,-0.0132,-0.0138,-0.0184,-0.0189,-0.0175,-0.0176,-0.0177,-0.0263,-0.0265,-0.0267,-0.027,-0.0413,-0.0417,-0.042,-0.0395,0,0,-0.0432,-0.0433,0,0,0,0,0,0,0,0,-0.0149,-0.0151,-0.0177,-0.0181,-0.0186,-0.0215,-0.0228,-0.0254,-0.0262,-0.0237,-0.0268,-0.0271,-0.0355,-0.0364,-0.0367,-0.0402,-0.0408,-0.0432,-0.0434,-0.0436,-0.0437,0,0,0,0,0,0,0,-0.0148,-0.015,-0.0155,-0.0177,-0.0182,-0.02,-0.0205,-0.0233,-0.0286,-0.0239,-0.0245,-0.0245,-0.0359,-0.0363,-0.0371,-0.0411,-0.0432,-0.0435,-0.0437,-0.0439,-0.0532,-0.0532,0,0,0,0,0,0,-0.0136,-0.0148,-0.0154,-0.0156,-0.017,-0.0198,-0.0204,-0.0205,-0.0284,-0.0296,-0.0243,-0.0249,-0.0356,-0.0367,-0.0377,-0.0415,-0.0436,-0.0439,-0.0441,-0.0531,-0.0532,-0.0532,0,0,0,0,0,0,-0.0136,-0.0136,-0.0152,-0.0151,-0.0154,-0.0195,-0.0196,-0.0205,-0.0226,-0.0284,-0.03,-0.0257,-0.0358,-0.0372,-0.0435,-0.0419,-0.0441,-0.0444,-0.0531,-0.0532,-0.0532,-0.045,0,0,0,0,0,0,-0.0136,-0.0136,-0.0135,-0.015,-0.0154,-0.0154,-0.0193,-0.0203,-0.022,-0.0229,-0.0302,-0.0317,-0.0361,-0.043,-0.0439,-0.0425,-0.0447,-0.0531,-0.0531,-0.0532,-0.0453,-0.0448,-0.0444,0,0,0,0,0,-0.0135,-0.0125,-0.0135,-0.0135,-0.015,-0.0153,-0.0157,-0.0196,-0.0219,-0.0225,-0.0291,-0.0315,-0.0439,-0.0433,-0.0444,-0.043,-0.0531,-0.0531,-0.0532,-0.0455,-0.0449,-0.0444,0,0,0,0,0,0,-0.0123,-0.0133,-0.0144,-0.0138,-0.0148,-0.0168,-0.0172,-0.0192,-0.0242,-0.0259,-0.0322,-0.0342,-0.0392,-0.0424,-0.0416,-0.0461,-0.0487,-0.0489,-0.0424,-0.0419,-0.0415,-0.0356,-0.045,0,0,0,0,0,-0.0115,-0.011,-0.0124,-0.0117,-0.0122,-0.0145,-0.0151,-0.0172,-0.0212,-0.0236,-0.029,-0.0348,-0.0395,-0.0421,-0.0471,-0.0488,-0.0502,-0.0488,-0.0483,-0.0479,-0.044,-0.0446,-0.0437,-0.0534,-0.0534,-0.0534,0,0,-0.0109,-0.011,-0.011,-0.0113,-0.0125,-0.0129,-0.0157,-0.0162,-0.0169,-0.0243,-0.0284,-0.0339,-0.0401,-0.0435,-0.0458,-0.0463,-0.0469,-0.048,-0.0475,-0.0438,-0.0445,-0.0435,-0.0426,-0.0535,-0.0535,-0.0534,0,0,-0.0086,-0.0094,-0.0086,-0.0093,-0.0101,-0.0113,-0.0115,-0.014,-0.016,-0.0198,-0.0256,-0.0292,-0.0375,-0.0397,-0.0424,-0.0418,-0.0452,-0.0448,-0.0364,-0.0371,-0.0362,-0.0354,-0.0392,-0.0388,-0.0435,-0.0435,-0.0435,0,-0.0077,-0.0064,-0.0083,-0.0079,-0.0071,-0.0107,-0.0092,-0.0116,-0.0162,-0.0157,-0.0212,-0.0287,-0.0346,-0.0349,-0.0356,-0.0401,-0.0426,-0.0377,-0.0361,-0.0353,-0.0346,-0.0387,-0.0383,-0.0431,-0.0432,-0.0432,-0.0432,0,-0.0054,-0.0045,-0.0039,-0.0043,-0.0043,-0.0032,-0.0058,-0.0065,-0.0095,-0.0115,-0.0136,-0.0209,-0.0237,-0.0271,-0.0317,-0.0288,-0.0332,-0.036,-0.0362,-0.033,-0.0377,-0.0375,-0.0426,-0.0427,-0.0428,-0.0429,0,0,-0.0017,-0.0018,-0.0014,0.0001,-0.0013,-0.0003,-0.0004,0.0008,0.0032,-0.0033,-0.0004,-0.008,-0.0098,-0.0125,-0.0175,-0.018,-0.0176,-0.0239,-0.0241,-0.0255,-0.0214,-0.027,-0.0274,-0.0203,-0.0201,-0.02,-0.0278,0,0.0017,0.0045,0.004,0.0071,0.0083,0.0075,0.0087,0.0087,0.0074,0.0079,0.0033,0.0018,-0.0051,-0.0054,-0.0068,-0.0145,-0.0161,-0.0153,-0.026,-0.0263,-0.0298,-0.0269,-0.0236,-0.0303,-0.0276,-0.0276,-0.0275,0,0.0046,0.0068,0.011,0.0151,0.016,0.0175,0.0231,0.0239,0.0239,0.0235,0.023,0.0173,0.0162,0.0088,0.0011,0.0016,-0.0079,-0.0148,-0.0154,-0.0218,-0.0312,-0.0327,-0.03,-0.0272,-0.0272,-0.0272,-0.0272,0,0.0088,0.0124,0.0173,0.0179,0.0207,0.0248,0.0271,0.0291,0.0319,0.0345,0.0355,0.0326,0.0301,0.0214,0.0045,0.0041,-0.0069,-0.0098,-0.024,-0.0248,-0.0241,-0.025,-0.0144,-0.0144,-0.0144,-0.0144,-0.0143,0,0.0121,0.0158,0.0199,0.0219,0.0281,0.0303,0.0373,0.0398,0.0445,0.0471,0.0443,0.0439,0.0332,0.023,0.0092,-0.0073,-0.0036,-0.0203,-0.0253,-0.0221,-0.0226,-0.021,-0.0216,-0.0147,-0.0146,-0.0145,-0.0145,0,0.0113,0.0157,0.021,0.0274,0.029,0.0335,0.0403,0.0439,0.0513,0.0549,0.0559,0.0528,0.043,0.0277,0.0118,-0.0019,-0.017,-0.0253,-0.0226,-0.027,-0.0353,-0.0355,-0.0364,-0.0366,-0.0368,-0.037,-0.0371,0,0.0101,0.0123,0.0213,0.0242,0.0264,0.0329,0.0348,0.0444,0.0495,0.0574,0.0581,0.053,0.0489,0.0246,0.0022,-0.0191,-0.0228,-0.0341,-0.0324,-0.0318,-0.0367,-0.0366,-0.0365,-0.0306,-0.0307,-0.0307,-0.0308,0,0.0038,0.0084,0.0114,0.0189,0.0233,0.029,0.0355,0.0425,0.0533,0.0619,0.0684,0.0681,0.0461,0.0286,-0.0013,-0.0178,-0.0287,-0.036,-0.0342,-0.0259,-0.027,-0.0317,-0.0316,-0.0313,-0.0312,-0.0312,-0.0312,-0.0312,-0.003,-0.0017,0.0043,0.0123,0.0178,0.0275,0.0357,0.0462,0.0607,0.0786,0.0737,0.0793,0.0545,0.0235,-0.0051,-0.0334,-0.0326,-0.0416,-0.0411,-0.0406,-0.0388,-0.0402,-0.0468,-0.0469,-0.0469,-0.0469,-0.047,0,-0.0106,-0.0075,-0.0034,0.0097,0.0184,0.0234,0.0368,0.0502,0.0715,0.0833,0.0947,0.0766,0.0572,0.0299,-0.011,-0.038,-0.0379,-0.0464,-0.0388,-0.0383,-0.0378,-0.0356,-0.0429,-0.043,-0.043,-0.043,0,0,-0.0143,-0.0127,-0.007,0.0088,0.019,0.0337,0.0449,0.066,0.0818,0.0987,0.1057,0.1045,0.0699,0.0417,0.0051,-0.0173,-0.0216,-0.0228,-0.0237,-0.0101,-0.0093,-0.0337,-0.0295,0,0,0,0,0]}],[{"header":{"parameterUnit":"m.s-1","parameterCategory":2,"la1":30.2991,"la2":30.254,"lo1":-89.0895,"lo2":-89.0444,"dy":0.0017,"dx":0.0017,"nx":28,"ny":28,"refTime":"2025-09-04T03:00:00:Z","depth":"4","parameterNumber":2,"parameterNumberName":"U-component_of_CURRENTS"},"data":[0,0,0,0,0,0,0,0,0,0,0,0,0,0,0,0,0,0,0,0,0,0,0,0,0,0,0,0,0,0,0,0,0,0,0,0,0,0,0,0,0,0,0,0,0,0,0,0,0,0,0,0,0,0,0,0,0,0,0.1141,0.1142,0,0.1179,0.118,0.118,0.1207,0.1207,0.1207,0.1207,0.1268,0.127,0.1271,0,0,0,0,0,0,0,0,0,0,0,0,0,0.1075,0.1076,0.1141,0.1142,0.1142,0.1179,0.118,0.118,0.1206,0.1207,0.1207,0.1208,0.1268,0.1269,0.1271,0,0,0,0,0,0,0,0,0,0,0,0,0,0.1106,0.1076,0.1141,0.1161,0.1163,0.1179,0.118,0.118,0.1206,0.1207,0.1207,0.1208,0.1267,0.1269,0.1271,0.1274,0,0,0.1277,0.1278,0,0,0,0,0,0,0,0,0.1104,0.1108,0.1157,0.1159,0.1162,0.119,0.1179,0.1213,0.1206,0.1188,0.1207,0.1208,0.1245,0.1249,0.1252,0.1277,0.1279,0.1277,0.1279,0.128,0.128,0,0,0,0,0,0,0,0.1102,0.1107,0.1155,0.1158,0.1161,0.1162,0.1167,0.1185,0.1213,0.119,0.1192,0.1199,0.1246,0.125,0.1254,0.128,0.1277,0.1279,0.128,0.1281,0.1365,0.1366,0,0,0,0,0,0,0.11,0.1105,0.1154,0.1156,0.1135,0.1163,0.1169,0.1179,0.1212,0.1218,0.1198,0.12,0.1247,0.1252,0.1256,0.1335,0.128,0.1281,0.1283,0.1364,0.1365,0.1366,0,0,0,0,0,0,0.1099,0.1105,0.1152,0.1132,0.1138,0.1164,0.1176,0.118,0.1212,0.1218,0.1224,0.1229,0.1247,0.1254,0.1296,0.1335,0.1282,0.1284,0.1363,0.1364,0.1366,0.1446,0,0,0,0,0,0,0.1097,0.1104,0.1119,0.1132,0.114,0.118,0.1175,0.118,0.1214,0.1217,0.1246,0.1251,0.1248,0.1294,0.1298,0.1337,0.1286,0.1361,0.1363,0.1365,0.1442,0.145,0.1457,0,0,0,0,0,0.1094,0.1107,0.1119,0.1126,0.1157,0.1181,0.1185,0.1203,0.1215,0.1233,0.1255,0.1251,0.1309,0.1296,0.1302,0.1342,0.136,0.1363,0.1365,0.1438,0.1448,0.1457,0,0,0,0,0,0,0.1084,0.1112,0.1125,0.1147,0.1172,0.1186,0.1207,0.1221,0.1252,0.1264,0.1269,0.1276,0.133,0.1319,0.1305,0.1368,0.1332,0.1336,0.1386,0.1395,0.1403,0.1423,0.1287,0,0,0,0,0,0.109,0.1112,0.1136,0.1158,0.1174,0.1198,0.1214,0.1229,0.1253,0.1269,0.1289,0.1309,0.1338,0.1354,0.1373,0.1409,0.1417,0.1434,0.1442,0.1448,0.1466,0.1523,0.1538,0.1374,0.1374,0.1374,0,0,0.1086,0.1112,0.112,0.1159,0.1182,0.1202,0.121,0.1245,0.1267,0.127,0.1317,0.1344,0.1354,0.1399,0.142,0.1398,0.1494,0.1451,0.1457,0.1472,0.1527,0.1543,0.1558,0.1375,0.1375,0.1375,0,0,0.1081,0.1123,0.1132,0.1168,0.1213,0.1225,0.1243,0.1276,0.1302,0.1346,0.136,0.1413,0.1441,0.1466,0.1478,0.1536,0.1537,0.1539,0.1594,0.1648,0.1663,0.1676,0.1691,0.1705,0.1537,0.1538,0.1538,0,0.1083,0.1103,0.1139,0.117,0.1209,0.1238,0.1267,0.1289,0.1333,0.1379,0.137,0.1465,0.1474,0.1545,0.1566,0.1557,0.1578,0.1561,0.1661,0.1674,0.1686,0.1699,0.1713,0.1542,0.1541,0.1541,0.154,0,0.1084,0.1115,0.1134,0.1182,0.1224,0.1263,0.1304,0.1345,0.1383,0.1424,0.152,0.154,0.1608,0.161,0.1609,0.1703,0.1686,0.1671,0.1644,0.1708,0.1716,0.173,0.1548,0.1546,0.1545,0.1544,0,0,0.1069,0.1119,0.1136,0.1171,0.1249,0.1285,0.1335,0.1406,0.1459,0.152,0.1585,0.1666,0.1719,0.1736,0.1748,0.1785,0.1878,0.1774,0.1774,0.1798,0.1988,0.1854,0.1856,0.1895,0.1898,0.1901,0.1954,0,0.107,0.1108,0.1149,0.1213,0.1243,0.132,0.1374,0.1455,0.1508,0.1568,0.164,0.1707,0.1753,0.1786,0.1852,0.1881,0.1922,0.1864,0.1914,0.1915,0.1797,0.187,0.1911,0.1964,0.1967,0.1969,0.1971,0,0.1068,0.1102,0.115,0.1249,0.1279,0.1334,0.1458,0.1511,0.1608,0.1655,0.1759,0.1794,0.1907,0.188,0.2037,0.2008,0.202,0.2017,0.2019,0.1881,0.1807,0.1889,0.1995,0.1993,0.1991,0.199,0.1988,0,0.1036,0.1117,0.1158,0.12,0.1302,0.1374,0.1449,0.1564,0.1613,0.1713,0.1751,0.1894,0.1958,0.2034,0.2089,0.2079,0.2186,0.2164,0.2048,0.2037,0.2105,0.2091,0.2238,0.2238,0.2238,0.2238,0.2238,0,0.1019,0.1064,0.1161,0.119,0.1286,0.1391,0.1484,0.157,0.1661,0.1723,0.1823,0.1865,0.2005,0.2073,0.2106,0.2139,0.2233,0.2077,0.2056,0.2132,0.212,0.2113,0.2098,0.224,0.2239,0.2239,0.2239,0,0.0954,0.1012,0.1073,0.1204,0.1259,0.1343,0.148,0.1526,0.1657,0.1714,0.1748,0.1886,0.2013,0.2092,0.2183,0.2157,0.2171,0.2133,0.2197,0.2175,0.1976,0.1964,0.2037,0.2033,0.203,0.2027,0.2025,0,0.0906,0.0929,0.1062,0.1104,0.117,0.1289,0.1351,0.15,0.1539,0.1713,0.1723,0.1867,0.1947,0.1993,0.2092,0.214,0.2108,0.2087,0.2054,0.1991,0.1964,0.1957,0.195,0.202,0.2019,0.2018,0.2017,0,0.0819,0.0882,0.0924,0.1011,0.1096,0.1162,0.1274,0.1292,0.146,0.1573,0.1663,0.1719,0.1833,0.1927,0.1964,0.199,0.2097,0.2051,0.2058,0.2028,0.197,0.1945,0.1942,0.2005,0.2007,0.2008,0.2009,0,0.0754,0.0767,0.083,0.0912,0.0992,0.1037,0.1106,0.1187,0.1264,0.1473,0.1495,0.1666,0.1809,0.1846,0.1884,0.1907,0.1894,0.1824,0.1843,0.1857,0.1776,0.1674,0.162,0,0,0,0,0,0.0686,0.0683,0.0725,0.0806,0.0875,0.094,0.1048,0.1119,0.1279,0.1303,0.1403,0.1499,0.16,0.1685,0.168,0.1805,0.1888,0.1788,0.1813,0.1941,0.1954,0.1876,0,0,0,0,0,0,0.063,0.065,0.0679,0.0701,0.074,0.0816,0.0887,0.0997,0.1029,0.1199,0.127,0.1398,0.1524,0.1596,0.165,0.1675,0.1657,0.1895,0.1891,0.1933,0.1945,0.1956,0.1881,0,0,0,0,0]},{"header":{"parameterUnit":"m.s-1","parameterCategory":2,"la1":30.2991,"la2":30.254,"lo1":-89.0895,"lo2":-89.0444,"dy":0.0017,"dx":0.0017,"nx":28,"ny":28,"refTime":"2025-09-04T03:00:00:Z","depth":"4","parameterNumber":3,"parameterNumberName":"V-component_of_CURRENTS"},"data":[0,0,0,0,0,0,0,0,0,0,0,0,0,0,0,0,0,0,0,0,0,0,0,0,0,0,0,0,0,0,0,0,0,0,0,0,0,0,0,0,0,0,0,0,0,0,0,0,0,0,0,0,0,0,0,0,0,0,0.0104,0.0104,0,0.0101,0.0101,0.0101,0.0083,0.0083,0.0083,0.0082,0.0046,0.0046,0.0045,0,0,0,0,0,0,0,0,0,0,0,0,0,0.0081,0.0081,0.0104,0.0104,0.0104,0.0101,0.0101,0.0101,0.0083,0.0083,0.0082,0.0082,0.0047,0.0046,0.0045,0,0,0,0,0,0,0,0,0,0,0,0,0,0.0084,0.0081,0.0104,0.0096,0.0095,0.0101,0.0101,0.0101,0.0083,0.0083,0.0082,0.0082,0.0047,0.0046,0.0045,0.0048,0,0,0.0042,0.0041,0,0,0,0,0,0,0,0,0.0084,0.0085,0.0097,0.0097,0.0096,0.0093,0.008,0.0082,0.0083,0.0086,0.0082,0.0082,0.006,0.0058,0.0057,0.0046,0.0045,0.0042,0.0041,0.0041,0.004,0,0,0,0,0,0,0,0.0084,0.0085,0.0101,0.0097,0.0097,0.0088,0.0088,0.008,0.0074,0.0086,0.0085,0.0087,0.0059,0.0058,0.0056,0.0044,0.0042,0.0041,0.004,0.004,0.0056,0.0057,0,0,0,0,0,0,0.0088,0.0085,0.0102,0.0102,0.009,0.0089,0.0089,0.0093,0.0075,0.0072,0.0088,0.0086,0.006,0.0057,0.0055,0.0071,0.0041,0.004,0.0039,0.0055,0.0057,0.0058,0,0,0,0,0,0,0.0088,0.009,0.0102,0.0094,0.0095,0.009,0.0095,0.0094,0.0093,0.0077,0.0073,0.0089,0.006,0.0056,0.0056,0.0068,0.0039,0.0038,0.0054,0.0056,0.0057,0.0094,0,0,0,0,0,0,0.0087,0.009,0.0096,0.0095,0.0096,0.0109,0.0096,0.0094,0.0096,0.0094,0.0076,0.0073,0.0059,0.0057,0.0055,0.0067,0.0038,0.0053,0.0055,0.0057,0.0091,0.0096,0.0101,0,0,0,0,0,0.0087,0.0101,0.0097,0.0099,0.0104,0.0109,0.0109,0.0103,0.0096,0.0099,0.0091,0.0073,0.0068,0.0057,0.0054,0.0066,0.0052,0.0054,0.0057,0.0089,0.0095,0.0101,0,0,0,0,0,0,0.0091,0.01,0.0096,0.0111,0.011,0.0107,0.0111,0.0106,0.0103,0.0102,0.0083,0.0079,0.0082,0.0073,0.0062,0.0079,0.0059,0.006,0.0085,0.009,0.0095,0.0066,0.0037,0,0,0,0,0,0.0096,0.0109,0.011,0.0121,0.0122,0.0116,0.0118,0.0115,0.0112,0.011,0.0098,0.0092,0.009,0.0089,0.0082,0.0091,0.0039,0.0099,0.0104,0.0108,0.0084,0.0005,-0.0001,0.0065,0.0065,0.0065,0,0,0.01,0.0107,0.0113,0.0123,0.0121,0.0137,0.0116,0.0123,0.0134,0.0107,0.0116,0.0103,0.0095,0.0104,0.0105,0.0098,0.0071,0.0111,0.0114,0.0087,0.0007,-0.0,-0.0007,0.0067,0.0067,0.0067,0,0,0.0119,0.012,0.0139,0.0141,0.0147,0.0151,0.0155,0.0154,0.0149,0.016,0.0142,0.013,0.014,0.0123,0.0121,0.0147,0.0094,0.0162,0.0164,0.009,0.0082,0.0075,0.0029,0.0018,0.0169,0.0169,0.0169,0,0.012,0.0144,0.0143,0.016,0.0162,0.0161,0.0175,0.0181,0.018,0.016,0.0171,0.0139,0.0144,0.0122,0.0147,0.0154,0.0109,0.0143,0.0092,0.0083,0.0075,0.0029,0.0016,0.0171,0.0171,0.0171,0.0171,0,0.0154,0.0169,0.0179,0.0203,0.0207,0.0218,0.0223,0.0223,0.0222,0.021,0.0179,0.0171,0.014,0.0159,0.0171,0.0125,0.0113,0.01,0.0069,0.007,0.0023,0.0008,0.0174,0.0173,0.0173,0.0172,0,0,0.0148,0.0195,0.0193,0.02,0.0225,0.0224,0.0244,0.0236,0.022,0.0216,0.0175,0.0184,0.0147,0.0141,0.0135,0.0092,0.0032,0.0084,0.0079,0.0024,-0.0123,-0.0075,-0.0086,0.0003,0.0,-0.0002,-0.0122,0,0.0166,0.0204,0.0223,0.0247,0.0258,0.0256,0.0266,0.0255,0.0242,0.0209,0.0169,0.0143,0.0152,0.0136,0.009,0.0043,-0.001,0.0066,-0.0104,-0.0109,-0.008,-0.0104,-0.0012,-0.0134,-0.0137,-0.014,-0.0142,0,0.0175,0.0202,0.0232,0.0245,0.0246,0.0264,0.0239,0.0249,0.0208,0.019,0.0135,0.0104,0.0049,0.0057,-0.0069,-0.0022,-0.0075,-0.0114,-0.012,-0.011,-0.0091,-0.0141,-0.0169,-0.0167,-0.0165,-0.0163,-0.0162,0,0.0146,0.019,0.0211,0.0219,0.025,0.0245,0.0254,0.0228,0.0231,0.0165,0.0154,0.0054,0.0027,-0.0081,-0.0126,-0.0116,-0.0266,-0.0269,-0.0288,-0.0284,-0.031,-0.0301,-0.0391,-0.0391,-0.0391,-0.0391,-0.039,0,0.014,0.0147,0.0199,0.0207,0.0222,0.0228,0.0228,0.0217,0.0202,0.0211,0.0138,0.0124,-0.0009,-0.0088,-0.0163,-0.0258,-0.0306,-0.0309,-0.0326,-0.0283,-0.027,-0.0319,-0.0309,-0.0395,-0.0394,-0.0393,-0.0393,0,0.0103,0.0136,0.0162,0.0201,0.0214,0.0218,0.0259,0.0266,0.0238,0.0248,0.0234,0.0163,0.0063,-0.0063,-0.0221,-0.0278,-0.0391,-0.0414,-0.0344,-0.0351,-0.0355,-0.0342,-0.0482,-0.0482,-0.0482,-0.0481,-0.0481,0,0.0095,0.0111,0.0167,0.02,0.0226,0.0249,0.0285,0.0285,0.0313,0.0295,0.0311,0.0211,0.0158,-0.0039,-0.0178,-0.0371,-0.0378,-0.0452,-0.0427,-0.037,-0.0372,-0.0359,-0.0346,-0.0481,-0.048,-0.048,-0.048,0,0.0101,0.012,0.0161,0.0229,0.0275,0.0324,0.0373,0.0397,0.0413,0.0388,0.0379,0.0274,0.0164,-0.0004,-0.0152,-0.028,-0.0421,-0.045,-0.0451,-0.0428,-0.0369,-0.0369,-0.0356,-0.0479,-0.0479,-0.0479,-0.0479,0,0.0125,0.0155,0.0224,0.0275,0.0339,0.04,0.0409,0.0459,0.0476,0.0461,0.0463,0.0332,0.0244,0.0046,-0.0082,-0.0217,-0.0253,-0.0299,-0.0309,-0.0313,-0.0217,-0.0114,-0.0179,0,0,0,0,0,0.0165,0.0215,0.0274,0.0339,0.0397,0.0425,0.0488,0.0497,0.0511,0.0522,0.0494,0.04,0.0204,0.0111,-0.0016,-0.0087,-0.0287,-0.0242,-0.0347,-0.0473,-0.0474,-0.0385,0,0,0,0,0,0,0.0202,0.0271,0.0291,0.0387,0.0429,0.0497,0.0533,0.0536,0.0539,0.0528,0.0426,0.0366,0.0171,0.0275,-0.0021,-0.0064,-0.0146,-0.0342,-0.0345,-0.0472,-0.0473,-0.0474,-0.0383,0,0,0,0,0]}]]